Year,Month,Day,Hour,Minute,Value (Times are PST for temperature in C)
2018,07,21,00,00,16.40
2018,07,21,00,01,16.40
2018,07,21,00,02,16.40
2018,07,21,00,03,16.40
2018,07,21,00,04,16.40
2018,07,21,00,05,16.40
2018,07,21,00,06,16.40
2018,07,21,00,07,16.40
2018,07,21,00,08,16.40
2018,07,21,00,09,16.40
2018,07,21,00,10,16.40
2018,07,21,00,11,16.40
2018,07,21,00,12,16.40
2018,07,21,00,13,16.40
2018,07,21,00,14,16.40
2018,07,21,00,15,16.30
2018,07,21,00,16,16.30
2018,07,21,00,17,16.30
2018,07,21,00,18,16.30
2018,07,21,00,19,16.30
2018,07,21,00,20,16.30
2018,07,21,00,21,16.30
2018,07,21,00,22,16.30
2018,07,21,00,23,16.30
2018,07,21,00,24,16.30
2018,07,21,00,25,16.30
2018,07,21,00,26,16.30
2018,07,21,00,27,16.30
2018,07,21,00,28,16.30
2018,07,21,00,29,16.30
2018,07,21,00,30,16.30
2018,07,21,00,31,16.30
2018,07,21,00,32,16.20
2018,07,21,00,33,16.20
2018,07,21,00,34,16.20
2018,07,21,00,35,16.20
2018,07,21,00,36,16.20
2018,07,21,00,37,16.20
2018,07,21,00,38,16.20
2018,07,21,00,39,16.20
2018,07,21,00,40,16.20
2018,07,21,00,41,16.20
2018,07,21,00,42,16.20
2018,07,21,00,43,16.20
2018,07,21,00,44,16.20
2018,07,21,00,45,16.20
2018,07,21,00,46,16.20
2018,07,21,00,47,16.10
2018,07,21,00,48,16.10
2018,07,21,00,49,16.10
2018,07,21,00,50,16.10
2018,07,21,00,51,16.10
2018,07,21,00,52,16.10
2018,07,21,00,53,16.10
2018,07,21,00,54,16.10
2018,07,21,00,55,16.10
2018,07,21,00,56,16.00
2018,07,21,00,57,16.00
2018,07,21,00,58,16.00
2018,07,21,00,59,16.00
2018,07,21,01,00,16.00
2018,07,21,01,01,16.00
2018,07,21,01,02,16.00
2018,07,21,01,03,15.90
2018,07,21,01,04,15.90
2018,07,21,01,05,15.90
2018,07,21,01,06,15.90
2018,07,21,01,07,15.90
2018,07,21,01,08,15.90
2018,07,21,01,09,15.90
2018,07,21,01,10,15.90
2018,07,21,01,11,15.90
2018,07,21,01,12,15.90
2018,07,21,01,13,15.90
2018,07,21,01,14,15.90
2018,07,21,01,15,15.90
2018,07,21,01,16,15.80
2018,07,21,01,17,15.80
2018,07,21,01,18,15.80
2018,07,21,01,19,15.80
2018,07,21,01,20,15.80
2018,07,21,01,21,15.70
2018,07,21,01,22,15.70
2018,07,21,01,23,15.70
2018,07,21,01,24,15.60
2018,07,21,01,25,15.60
2018,07,21,01,26,15.60
2018,07,21,01,27,15.50
2018,07,21,01,28,15.40
2018,07,21,01,29,15.40
2018,07,21,01,30,15.40
2018,07,21,01,31,15.30
2018,07,21,01,32,15.30
2018,07,21,01,33,15.30
2018,07,21,01,34,15.30
2018,07,21,01,35,15.30
2018,07,21,01,36,15.30
2018,07,21,01,37,15.30
2018,07,21,01,38,15.30
2018,07,21,01,39,15.30
2018,07,21,01,40,15.30
2018,07,21,01,41,15.30
2018,07,21,01,42,15.40
2018,07,21,01,43,15.40
2018,07,21,01,44,15.40
2018,07,21,01,45,15.40
2018,07,21,01,46,15.40
2018,07,21,01,47,15.40
2018,07,21,01,48,15.40
2018,07,21,01,49,15.40
2018,07,21,01,50,15.40
2018,07,21,01,51,15.40
2018,07,21,01,52,15.40
2018,07,21,01,53,15.40
2018,07,21,01,54,15.40
2018,07,21,01,55,15.40
2018,07,21,01,56,15.40
2018,07,21,01,57,15.40
2018,07,21,01,58,15.40
2018,07,21,01,59,15.40
2018,07,21,02,00,15.30
2018,07,21,02,01,15.30
2018,07,21,02,02,15.30
2018,07,21,02,03,15.30
2018,07,21,02,04,15.30
2018,07,21,02,05,15.30
2018,07,21,02,06,15.30
2018,07,21,02,07,15.30
2018,07,21,02,08,15.30
2018,07,21,02,09,15.30
2018,07,21,02,10,15.30
2018,07,21,02,11,15.30
2018,07,21,02,12,15.30
2018,07,21,02,13,15.30
2018,07,21,02,14,15.30
2018,07,21,02,15,15.30
2018,07,21,02,16,15.30
2018,07,21,02,17,15.30
2018,07,21,02,18,15.30
2018,07,21,02,19,15.30
2018,07,21,02,20,15.30
2018,07,21,02,21,15.40
2018,07,21,02,22,15.40
2018,07,21,02,23,15.40
2018,07,21,02,24,15.40
2018,07,21,02,25,15.40
2018,07,21,02,26,15.50
2018,07,21,02,27,15.50
2018,07,21,02,28,15.50
2018,07,21,02,29,15.50
2018,07,21,02,30,15.50
2018,07,21,02,31,15.50
2018,07,21,02,32,15.60
2018,07,21,02,33,15.60
2018,07,21,02,34,15.60
2018,07,21,02,35,15.60
2018,07,21,02,36,15.50
2018,07,21,02,37,15.50
2018,07,21,02,38,15.50
2018,07,21,02,39,15.50
2018,07,21,02,40,15.50
2018,07,21,02,41,15.50
2018,07,21,02,42,15.50
2018,07,21,02,43,15.50
2018,07,21,02,44,15.50
2018,07,21,02,45,15.50
2018,07,21,02,46,15.50
2018,07,21,02,47,15.50
2018,07,21,02,48,15.50
2018,07,21,02,49,15.50
2018,07,21,02,50,15.50
2018,07,21,02,51,15.50
2018,07,21,02,52,15.50
2018,07,21,02,53,15.50
2018,07,21,02,54,15.50
2018,07,21,02,55,15.50
2018,07,21,02,56,15.50
2018,07,21,02,57,15.50
2018,07,21,02,58,15.60
2018,07,21,02,59,15.60
2018,07,21,03,00,15.60
2018,07,21,03,01,15.60
2018,07,21,03,02,15.60
2018,07,21,03,03,15.60
2018,07,21,03,04,15.60
2018,07,21,03,05,15.60
2018,07,21,03,06,15.60
2018,07,21,03,07,15.60
2018,07,21,03,08,15.60
2018,07,21,03,09,15.60
2018,07,21,03,10,15.60
2018,07,21,03,11,15.60
2018,07,21,03,12,15.60
2018,07,21,03,13,15.60
2018,07,21,03,14,15.60
2018,07,21,03,15,15.50
2018,07,21,03,16,15.50
2018,07,21,03,17,15.50
2018,07,21,03,18,15.50
2018,07,21,03,19,15.50
2018,07,21,03,20,15.50
2018,07,21,03,21,15.50
2018,07,21,03,22,15.50
2018,07,21,03,23,15.50
2018,07,21,03,24,15.50
2018,07,21,03,25,15.50
2018,07,21,03,26,15.50
2018,07,21,03,27,15.50
2018,07,21,03,28,15.50
2018,07,21,03,29,15.50
2018,07,21,03,30,15.50
2018,07,21,03,31,15.50
2018,07,21,03,32,15.50
2018,07,21,03,33,15.40
2018,07,21,03,34,15.40
2018,07,21,03,35,15.40
2018,07,21,03,36,15.40
2018,07,21,03,37,15.40
2018,07,21,03,38,15.40
2018,07,21,03,39,15.40
2018,07,21,03,40,15.40
2018,07,21,03,41,15.40
2018,07,21,03,42,15.40
2018,07,21,03,43,15.40
2018,07,21,03,44,15.40
2018,07,21,03,45,15.40
2018,07,21,03,46,15.40
2018,07,21,03,47,15.40
2018,07,21,03,48,15.40
2018,07,21,03,49,15.40
2018,07,21,03,50,15.40
2018,07,21,03,51,15.40
2018,07,21,03,52,15.40
2018,07,21,03,53,15.40
2018,07,21,03,54,15.40
2018,07,21,03,55,15.40
2018,07,21,03,56,15.40
2018,07,21,03,57,15.40
2018,07,21,03,58,15.40
2018,07,21,03,59,15.40
2018,07,21,04,00,15.40
2018,07,21,04,01,15.40
2018,07,21,04,02,15.40
2018,07,21,04,03,15.40
2018,07,21,04,04,15.40
2018,07,21,04,05,15.40
2018,07,21,04,06,15.40
2018,07,21,04,07,15.40
2018,07,21,04,08,15.40
2018,07,21,04,09,15.40
2018,07,21,04,10,15.40
2018,07,21,04,11,15.40
2018,07,21,04,12,15.40
2018,07,21,04,13,15.40
2018,07,21,04,14,15.40
2018,07,21,04,15,15.40
2018,07,21,04,16,15.40
2018,07,21,04,17,15.30
2018,07,21,04,18,15.30
2018,07,21,04,19,15.30
2018,07,21,04,20,15.30
2018,07,21,04,21,15.30
2018,07,21,04,22,15.30
2018,07,21,04,23,15.30
2018,07,21,04,24,15.30
2018,07,21,04,25,15.30
2018,07,21,04,26,15.30
2018,07,21,04,27,15.30
2018,07,21,04,28,15.30
2018,07,21,04,29,15.30
2018,07,21,04,30,15.30
2018,07,21,04,31,15.30
2018,07,21,04,32,15.30
2018,07,21,04,33,15.30
2018,07,21,04,34,15.30
2018,07,21,04,35,15.30
2018,07,21,04,36,15.30
2018,07,21,04,37,15.30
2018,07,21,04,38,15.30
2018,07,21,04,39,15.30
2018,07,21,04,40,15.30
2018,07,21,04,41,15.30
2018,07,21,04,42,15.30
2018,07,21,04,43,15.30
2018,07,21,04,44,15.30
2018,07,21,04,45,15.30
2018,07,21,04,46,15.30
2018,07,21,04,47,15.30
2018,07,21,04,48,15.30
2018,07,21,04,49,15.30
2018,07,21,04,50,15.30
2018,07,21,04,51,15.30
2018,07,21,04,52,15.30
2018,07,21,04,53,15.30
2018,07,21,04,54,15.30
2018,07,21,04,55,15.30
2018,07,21,04,56,15.30
2018,07,21,04,57,15.30
2018,07,21,04,58,15.40
2018,07,21,04,59,15.40
2018,07,21,05,00,15.40
2018,07,21,05,01,15.40
2018,07,21,05,02,15.40
2018,07,21,05,03,15.40
2018,07,21,05,04,15.40
2018,07,21,05,05,15.50
2018,07,21,05,06,15.40
2018,07,21,05,07,15.50
2018,07,21,05,08,15.50
2018,07,21,05,09,15.50
2018,07,21,05,10,15.50
2018,07,21,05,11,15.50
2018,07,21,05,12,15.60
2018,07,21,05,13,15.60
2018,07,21,05,14,15.60
2018,07,21,05,15,15.60
2018,07,21,05,16,15.60
2018,07,21,05,17,15.60
2018,07,21,05,18,15.60
2018,07,21,05,19,15.60
2018,07,21,05,20,15.60
2018,07,21,05,21,15.60
2018,07,21,05,22,15.70
2018,07,21,05,23,15.70
2018,07,21,05,24,15.70
2018,07,21,05,25,15.70
2018,07,21,05,26,15.70
2018,07,21,05,27,15.70
2018,07,21,05,28,15.70
2018,07,21,05,29,15.80
2018,07,21,05,30,15.80
2018,07,21,05,31,15.80
2018,07,21,05,32,15.80
2018,07,21,05,33,15.80
2018,07,21,05,34,15.90
2018,07,21,05,35,15.90
2018,07,21,05,36,15.90
2018,07,21,05,37,15.90
2018,07,21,05,38,15.90
2018,07,21,05,39,15.90
2018,07,21,05,40,15.90
2018,07,21,05,41,15.90
2018,07,21,05,42,16.00
2018,07,21,05,43,16.00
2018,07,21,05,44,16.00
2018,07,21,05,45,16.00
2018,07,21,05,46,16.00
2018,07,21,05,47,16.00
2018,07,21,05,48,16.00
2018,07,21,05,49,16.10
2018,07,21,05,50,16.10
2018,07,21,05,51,16.00
2018,07,21,05,52,16.10
2018,07,21,05,53,16.10
2018,07,21,05,54,16.10
2018,07,21,05,55,16.10
2018,07,21,05,56,16.10
2018,07,21,05,57,16.10
2018,07,21,05,58,16.10
2018,07,21,05,59,16.10
2018,07,21,06,00,16.10
2018,07,21,06,01,16.10
2018,07,21,06,02,16.10
2018,07,21,06,03,16.10
2018,07,21,06,04,16.10
2018,07,21,06,05,16.10
2018,07,21,06,06,16.10
2018,07,21,06,07,16.10
2018,07,21,06,08,16.10
2018,07,21,06,09,16.20
2018,07,21,06,10,16.10
2018,07,21,06,11,16.20
2018,07,21,06,12,16.20
2018,07,21,06,13,16.20
2018,07,21,06,14,16.20
2018,07,21,06,15,16.20
2018,07,21,06,16,16.20
2018,07,21,06,17,16.20
2018,07,21,06,18,16.20
2018,07,21,06,19,16.20
2018,07,21,06,20,16.20
2018,07,21,06,21,16.20
2018,07,21,06,22,16.20
2018,07,21,06,23,16.20
2018,07,21,06,24,16.20
2018,07,21,06,25,16.20
2018,07,21,06,26,16.20
2018,07,21,06,27,16.20
2018,07,21,06,28,16.20
2018,07,21,06,29,16.20
2018,07,21,06,30,16.20
2018,07,21,06,31,16.20
2018,07,21,06,32,16.20
2018,07,21,06,33,16.20
2018,07,21,06,34,16.20
2018,07,21,06,35,16.20
2018,07,21,06,36,16.20
2018,07,21,06,37,16.20
2018,07,21,06,38,16.20
2018,07,21,06,39,16.20
2018,07,21,06,40,16.20
2018,07,21,06,41,16.20
2018,07,21,06,42,16.30
2018,07,21,06,43,16.30
2018,07,21,06,44,16.30
2018,07,21,06,45,16.20
2018,07,21,06,46,16.30
2018,07,21,06,47,16.30
2018,07,21,06,48,16.30
2018,07,21,06,49,16.30
2018,07,21,06,50,16.30
2018,07,21,06,51,16.30
2018,07,21,06,52,16.30
2018,07,21,06,53,16.30
2018,07,21,06,54,16.30
2018,07,21,06,55,16.20
2018,07,21,06,56,16.20
2018,07,21,06,57,16.20
2018,07,21,06,58,16.20
2018,07,21,06,59,16.20
2018,07,21,07,00,16.20
2018,07,21,07,01,16.20
2018,07,21,07,02,16.20
2018,07,21,07,03,16.20
2018,07,21,07,04,16.20
2018,07,21,07,05,16.20
2018,07,21,07,06,16.20
2018,07,21,07,07,16.20
2018,07,21,07,08,16.20
2018,07,21,07,09,16.30
2018,07,21,07,10,16.30
2018,07,21,07,11,16.40
2018,07,21,07,12,16.40
2018,07,21,07,13,16.40
2018,07,21,07,14,16.50
2018,07,21,07,15,16.50
2018,07,21,07,16,16.50
2018,07,21,07,17,16.60
2018,07,21,07,18,16.60
2018,07,21,07,19,16.60
2018,07,21,07,20,16.60
2018,07,21,07,21,16.60
2018,07,21,07,22,16.60
2018,07,21,07,23,16.60
2018,07,21,07,24,16.60
2018,07,21,07,25,16.60
2018,07,21,07,26,16.60
2018,07,21,07,27,16.60
2018,07,21,07,28,16.70
2018,07,21,07,29,16.70
2018,07,21,07,30,16.70
2018,07,21,07,31,16.80
2018,07,21,07,32,16.80
2018,07,21,07,33,16.80
2018,07,21,07,34,16.80
2018,07,21,07,35,16.80
2018,07,21,07,36,16.80
2018,07,21,07,37,16.80
2018,07,21,07,38,16.70
2018,07,21,07,39,16.70
2018,07,21,07,40,16.70
2018,07,21,07,41,16.70
2018,07,21,07,42,16.70
2018,07,21,07,43,16.70
2018,07,21,07,44,16.70
2018,07,21,07,45,16.70
2018,07,21,07,46,16.70
2018,07,21,07,47,16.70
2018,07,21,07,48,16.70
2018,07,21,07,49,16.70
2018,07,21,07,50,16.70
2018,07,21,07,51,16.80
2018,07,21,07,52,16.80
2018,07,21,07,53,16.80
2018,07,21,07,54,16.80
2018,07,21,07,55,16.80
2018,07,21,07,56,16.80
2018,07,21,11,25,17.40
2018,07,21,11,26,17.40
2018,07,21,11,27,17.50
2018,07,21,11,28,17.50
2018,07,21,11,29,17.50
2018,07,21,11,30,17.60
2018,07,21,11,31,17.60
2018,07,21,11,32,17.70
2018,07,21,11,33,17.70
2018,07,21,11,34,17.70
2018,07,21,11,35,17.70
2018,07,21,11,36,17.70
2018,07,21,11,37,17.80
2018,07,21,11,38,17.80
2018,07,21,11,39,17.80
2018,07,21,11,40,17.80
2018,07,21,11,41,17.90
2018,07,21,11,42,17.90
2018,07,21,11,43,17.90
2018,07,21,12,04,18.30
2018,07,21,12,05,18.30
2018,07,21,12,06,18.30
2018,07,21,12,07,18.30
2018,07,21,12,08,18.30
2018,07,21,12,09,18.30
2018,07,21,12,10,18.20
2018,07,21,12,11,18.20
2018,07,21,12,12,18.20
2018,07,21,12,13,18.20
2018,07,21,12,14,18.20
2018,07,21,12,15,18.20
2018,07,21,12,16,18.20
2018,07,21,12,17,18.30
2018,07,21,12,18,18.20
2018,07,21,12,19,18.20
2018,07,21,12,20,18.30
2018,07,21,12,21,18.30
2018,07,21,12,22,18.30
2018,07,21,12,23,18.30
2018,07,21,12,24,18.30
2018,07,21,12,25,18.30
2018,07,21,12,26,18.30
2018,07,21,12,27,18.30
2018,07,21,12,28,18.30
2018,07,21,12,29,18.40
2018,07,21,12,30,18.40
2018,07,21,12,31,18.40
2018,07,21,12,32,18.40
2018,07,21,12,33,18.40
2018,07,21,12,34,18.50
2018,07,21,12,35,18.50
2018,07,21,12,36,18.60
2018,07,21,12,37,18.60
2018,07,21,12,38,18.70
2018,07,21,12,39,18.80
2018,07,21,12,40,18.80
2018,07,21,12,41,18.90
2018,07,21,12,42,19.00
2018,07,21,12,43,19.00
2018,07,21,12,44,19.10
2018,07,21,12,45,19.20
2018,07,21,12,46,19.20
2018,07,21,12,47,19.30
2018,07,21,12,48,19.40
2018,07,21,12,49,19.40
2018,07,21,12,50,19.40
2018,07,21,12,51,19.40
2018,07,21,12,52,19.40
2018,07,21,12,53,19.40
2018,07,21,12,54,19.50
2018,07,21,12,55,19.50
2018,07,21,12,56,19.60
2018,07,21,12,57,19.60
2018,07,21,12,58,19.60
2018,07,21,12,59,19.70
2018,07,21,13,00,19.70
2018,07,21,13,01,19.60
2018,07,21,13,02,19.60
2018,07,21,13,03,19.60
2018,07,21,13,04,19.60
2018,07,21,13,05,19.60
2018,07,21,13,06,19.50
2018,07,21,13,07,19.50
2018,07,21,13,08,19.60
2018,07,21,13,09,19.60
2018,07,21,13,10,19.60
2018,07,21,13,11,19.60
2018,07,21,13,12,19.60
2018,07,21,13,13,19.60
2018,07,21,13,14,19.60
2018,07,21,13,15,19.60
2018,07,21,13,16,19.60
2018,07,21,13,17,19.60
2018,07,21,13,18,19.60
2018,07,21,13,19,19.70
2018,07,21,13,20,19.70
2018,07,21,13,21,19.80
2018,07,21,13,22,19.80
2018,07,21,13,23,19.80
2018,07,21,13,24,19.80
2018,07,21,13,25,19.70
2018,07,21,13,26,19.70
2018,07,21,13,27,19.80
2018,07,21,13,28,19.70
2018,07,21,13,29,19.70
2018,07,21,13,30,19.70
2018,07,21,13,31,19.70
2018,07,21,13,32,19.60
2018,07,21,13,33,19.70
2018,07,21,13,34,19.70
2018,07,21,13,35,19.80
2018,07,21,13,36,19.80
2018,07,21,13,37,19.80
2018,07,21,13,38,19.80
2018,07,21,13,39,19.70
2018,07,21,13,40,19.80
2018,07,21,13,41,19.80
2018,07,21,13,42,19.80
2018,07,21,13,43,19.80
2018,07,21,13,44,19.80
2018,07,21,13,45,19.70
2018,07,21,13,46,19.70
2018,07,21,13,47,19.70
2018,07,21,13,48,19.70
2018,07,21,13,49,19.60
2018,07,21,13,50,19.60
2018,07,21,13,51,19.60
2018,07,21,13,52,19.60
2018,07,21,13,53,19.70
2018,07,21,13,54,19.70
2018,07,21,13,55,19.70
2018,07,21,13,56,19.80
2018,07,21,13,57,19.90
2018,07,21,13,58,20.00
2018,07,21,13,59,20.10
2018,07,21,14,00,20.20
2018,07,21,14,01,20.30
2018,07,21,14,02,20.40
2018,07,21,14,03,20.60
2018,07,21,14,04,20.60
2018,07,21,14,05,20.80
2018,07,21,14,06,20.90
2018,07,21,14,07,21.00
2018,07,21,14,08,21.00
2018,07,21,14,09,21.10
2018,07,21,14,10,21.20
2018,07,21,14,11,21.20
2018,07,21,14,12,21.20
2018,07,21,14,13,21.20
2018,07,21,14,14,21.20
2018,07,21,14,15,21.20
2018,07,21,14,16,21.20
2018,07,21,14,17,21.30
2018,07,21,14,18,21.40
2018,07,21,14,19,21.50
2018,07,21,14,20,21.50
2018,07,21,14,21,21.60
2018,07,21,14,22,21.60
2018,07,21,14,23,21.70
2018,07,21,14,24,21.70
2018,07,21,14,25,21.70
2018,07,21,14,26,21.70
2018,07,21,14,27,21.80
2018,07,21,14,28,21.80
2018,07,21,14,29,21.80
2018,07,21,14,30,21.80
2018,07,21,14,31,21.80
2018,07,21,14,32,21.90
2018,07,21,14,33,21.90
2018,07,21,14,34,22.00
2018,07,21,14,35,21.90
2018,07,21,14,36,21.90
2018,07,21,14,37,21.90
2018,07,21,14,38,21.90
2018,07,21,14,39,22.00
2018,07,21,14,40,22.00
2018,07,21,14,41,22.00
2018,07,21,14,42,22.10
2018,07,21,14,43,22.10
2018,07,21,14,44,22.20
2018,07,21,14,45,22.30
2018,07,21,14,46,22.20
2018,07,21,14,47,22.20
2018,07,21,14,48,22.10
2018,07,21,14,49,21.80
2018,07,21,14,50,21.60
2018,07,21,14,51,21.40
2018,07,21,14,52,21.20
2018,07,21,14,53,21.10
2018,07,21,14,54,20.90
2018,07,21,14,55,20.90
2018,07,21,14,56,20.80
2018,07,21,14,57,20.80
2018,07,21,14,58,20.70
2018,07,21,14,59,20.80
2018,07,21,15,00,20.80
2018,07,21,15,01,20.70
2018,07,21,15,02,20.70
2018,07,21,15,03,20.60
2018,07,21,15,04,20.60
2018,07,21,15,05,20.60
2018,07,21,15,06,20.50
2018,07,21,15,07,20.50
2018,07,21,15,08,20.40
2018,07,21,15,09,20.40
2018,07,21,15,10,20.50
2018,07,21,15,11,20.50
2018,07,21,15,12,20.60
2018,07,21,15,13,20.70
2018,07,21,15,14,20.70
2018,07,21,15,15,20.80
2018,07,21,15,16,20.90
2018,07,21,15,17,21.00
2018,07,21,15,18,21.00
2018,07,21,15,19,21.10
2018,07,21,15,20,21.20
2018,07,21,15,21,21.20
2018,07,21,15,22,21.30
2018,07,21,15,23,21.30
2018,07,21,15,24,21.30
2018,07,21,15,25,21.30
2018,07,21,15,26,21.30
2018,07,21,15,27,21.30
2018,07,21,15,28,21.20
2018,07,21,15,29,21.20
2018,07,21,15,30,21.10
2018,07,21,15,31,21.10
2018,07,21,15,32,21.10
2018,07,21,15,33,21.20
2018,07,21,15,34,21.20
2018,07,21,15,35,21.20
2018,07,21,15,36,21.10
2018,07,21,15,37,21.10
2018,07,21,15,38,21.10
2018,07,21,15,39,21.00
2018,07,21,15,40,21.00
2018,07,21,15,41,21.10
2018,07,21,15,42,21.10
2018,07,21,15,43,21.10
2018,07,21,15,44,21.10
2018,07,21,15,45,21.10
2018,07,21,15,46,21.10
2018,07,21,15,47,21.10
2018,07,21,15,48,21.10
2018,07,21,15,49,21.10
2018,07,21,15,50,21.20
2018,07,21,15,51,21.20
2018,07,21,15,52,21.20
2018,07,21,15,53,21.20
2018,07,21,15,54,21.20
2018,07,21,15,55,21.20
2018,07,21,15,56,21.20
2018,07,21,15,57,21.20
2018,07,21,15,58,21.20
2018,07,21,15,59,21.20
2018,07,21,16,00,21.20
2018,07,21,16,01,21.20
2018,07,21,16,02,21.20
2018,07,21,16,03,21.30
2018,07,21,16,04,21.30
2018,07,21,16,05,21.40
2018,07,21,16,06,21.40
2018,07,21,16,07,21.40
2018,07,21,16,08,21.40
2018,07,21,16,09,21.50
2018,07,21,16,10,21.60
2018,07,21,16,11,21.60
2018,07,21,16,12,21.60
2018,07,21,16,13,21.60
2018,07,21,16,14,21.60
2018,07,21,16,15,21.60
2018,07,21,16,16,21.60
2018,07,21,16,17,21.60
2018,07,21,16,18,21.60
2018,07,21,16,19,21.60
2018,07,21,16,20,21.50
2018,07,21,16,21,21.50
2018,07,21,16,22,21.60
2018,07,21,16,23,21.60
2018,07,21,16,24,21.70
2018,07,21,16,25,21.70
2018,07,21,16,26,21.70
2018,07,21,16,27,21.70
2018,07,21,16,28,21.70
2018,07,21,16,29,21.70
2018,07,21,16,30,21.70
2018,07,21,16,31,21.70
2018,07,21,16,32,21.70
2018,07,21,16,33,21.70
2018,07,21,16,34,21.70
2018,07,21,16,35,21.80
2018,07,21,16,36,21.80
2018,07,21,16,37,21.80
2018,07,21,16,38,21.90
2018,07,21,16,39,21.90
2018,07,21,16,40,21.90
2018,07,21,16,41,22.00
2018,07,21,16,42,22.00
2018,07,21,16,43,22.00
2018,07,21,16,44,22.10
2018,07,21,16,45,22.10
2018,07,21,16,46,22.10
2018,07,21,16,47,22.10
2018,07,21,16,48,22.10
2018,07,21,16,49,22.10
2018,07,21,16,50,22.10
2018,07,21,16,51,22.10
2018,07,21,16,52,22.20
2018,07,21,16,53,22.20
2018,07,21,16,54,22.20
2018,07,21,16,55,22.20
2018,07,21,16,56,22.10
2018,07,21,16,57,22.10
2018,07,21,16,58,22.10
2018,07,21,16,59,22.20
2018,07,21,17,00,22.20
2018,07,21,17,01,22.20
2018,07,21,17,02,22.30
2018,07,21,17,03,22.30
2018,07,21,17,04,22.40
2018,07,21,17,05,22.50
2018,07,21,17,06,22.60
2018,07,21,17,07,22.60
2018,07,21,17,08,22.70
2018,07,21,17,09,22.80
2018,07,21,17,10,22.90
2018,07,21,17,11,23.10
2018,07,21,17,12,23.20
2018,07,21,17,13,23.30
2018,07,21,17,14,23.40
2018,07,21,17,15,23.50
2018,07,21,17,16,23.60
2018,07,21,17,17,23.80
2018,07,21,17,18,23.90
2018,07,21,17,19,24.00
2018,07,21,17,20,24.10
2018,07,21,17,21,24.10
2018,07,21,17,22,24.10
2018,07,21,17,23,24.10
2018,07,21,17,24,24.20
2018,07,21,17,25,24.20
2018,07,21,17,26,24.20
2018,07,21,17,27,24.30
2018,07,21,17,28,24.30
2018,07,21,17,29,24.30
2018,07,21,17,30,24.30
2018,07,21,17,31,24.30
2018,07,21,17,32,24.20
2018,07,21,17,33,24.20
2018,07,21,17,34,24.10
2018,07,21,17,35,24.10
2018,07,21,17,36,24.00
2018,07,21,17,37,24.00
2018,07,21,17,38,23.90
2018,07,21,17,39,23.90
2018,07,21,17,40,23.80
2018,07,21,17,41,23.80
2018,07,21,17,42,23.80
2018,07,21,17,43,23.70
2018,07,21,17,44,23.60
2018,07,21,17,45,23.50
2018,07,21,17,46,23.40
2018,07,21,17,47,23.30
2018,07,21,17,48,23.30
2018,07,21,17,49,23.30
2018,07,21,17,50,23.20
2018,07,21,17,51,23.20
2018,07,21,17,52,23.20
2018,07,21,17,53,23.20
2018,07,21,17,54,23.10
2018,07,21,17,55,23.10
2018,07,21,17,56,23.10
2018,07,21,17,57,23.00
2018,07,21,17,58,22.90
2018,07,21,17,59,22.80
2018,07,21,18,00,22.80
2018,07,21,18,01,22.80
2018,07,21,18,02,22.70
2018,07,21,18,03,22.70
2018,07,21,18,04,22.60
2018,07,21,18,05,22.50
2018,07,21,18,06,22.50
2018,07,21,18,07,22.40
2018,07,21,18,08,22.40
2018,07,21,18,09,22.40
2018,07,21,18,10,22.40
2018,07,21,18,11,22.40
2018,07,21,18,12,22.40
2018,07,21,18,13,22.40
2018,07,21,18,14,22.40
2018,07,21,18,15,22.40
2018,07,21,18,16,22.40
2018,07,21,18,17,22.50
2018,07,21,18,18,22.50
2018,07,21,18,19,22.60
2018,07,21,18,20,22.60
2018,07,21,18,21,22.60
2018,07,21,18,22,22.60
2018,07,21,18,23,22.60
2018,07,21,18,24,22.60
2018,07,21,18,25,22.60
2018,07,21,18,26,22.60
2018,07,21,18,27,22.60
2018,07,21,18,28,22.60
2018,07,21,18,29,22.60
2018,07,21,18,30,22.50
2018,07,21,18,31,22.50
2018,07,21,18,32,22.40
2018,07,21,18,33,22.30
2018,07,21,18,34,22.30
2018,07,21,18,35,22.30
2018,07,21,18,36,22.20
2018,07,21,18,37,22.10
2018,07,21,18,38,22.10
2018,07,21,18,39,22.00
2018,07,21,18,40,22.00
2018,07,21,18,41,21.90
2018,07,21,18,42,21.90
2018,07,21,18,43,21.80
2018,07,21,18,44,21.70
2018,07,21,18,45,21.70
2018,07,21,18,46,21.70
2018,07,21,18,47,21.60
2018,07,21,18,48,21.60
2018,07,21,18,49,21.60
2018,07,21,18,50,21.60
2018,07,21,18,51,21.60
2018,07,21,18,52,21.70
2018,07,21,18,53,21.70
2018,07,21,18,54,21.80
2018,07,21,18,55,21.80
2018,07,21,18,56,21.90
2018,07,21,18,57,22.00
2018,07,21,18,58,22.10
2018,07,21,18,59,22.20
2018,07,21,19,00,22.30
2018,07,21,19,01,22.40
2018,07,21,19,02,22.50
2018,07,21,19,03,22.60
2018,07,21,19,04,22.70
2018,07,21,19,05,22.70
2018,07,21,19,06,22.80
2018,07,21,19,07,22.80
2018,07,21,19,08,22.80
2018,07,21,19,09,22.70
2018,07,21,19,10,22.70
2018,07,21,19,11,22.70
2018,07,21,19,12,22.70
2018,07,21,19,13,22.70
2018,07,21,19,14,22.70
2018,07,21,19,15,22.70
2018,07,21,19,16,22.60
2018,07,21,19,17,22.60
2018,07,21,19,18,22.60
2018,07,21,19,19,22.60
2018,07,21,19,20,22.60
2018,07,21,19,21,22.60
2018,07,21,19,22,22.60
2018,07,21,19,23,22.60
2018,07,21,19,24,22.60
2018,07,21,19,25,22.60
2018,07,21,19,26,22.50
2018,07,21,19,27,22.50
2018,07,21,19,28,22.40
2018,07,21,19,29,22.40
2018,07,21,19,30,22.40
2018,07,21,19,31,22.30
2018,07,21,19,32,22.30
2018,07,21,19,33,22.30
2018,07,21,19,34,22.30
2018,07,21,19,35,22.30
2018,07,21,19,36,22.30
2018,07,21,19,37,22.30
2018,07,21,19,38,22.30
2018,07,21,19,39,22.30
2018,07,21,19,40,22.30
2018,07,21,19,41,22.30
2018,07,21,20,45,21.60
2018,07,21,20,46,21.60
2018,07,21,20,47,21.50
2018,07,21,20,48,21.50
2018,07,21,20,49,21.40
2018,07,21,20,50,21.30
2018,07,21,20,51,21.30
2018,07,21,20,52,21.30
2018,07,21,20,53,21.20
2018,07,21,20,54,21.10
2018,07,21,20,55,21.10
2018,07,21,20,56,21.10
2018,07,21,20,57,21.00
2018,07,21,20,58,21.00
2018,07,21,20,59,20.90
2018,07,21,21,00,20.80
2018,07,21,21,01,20.80
2018,07,21,21,02,20.80
2018,07,21,21,03,20.70
2018,07,21,21,04,20.60
2018,07,21,21,05,20.60
2018,07,21,21,06,20.60
2018,07,21,21,07,20.50
2018,07,21,21,08,20.50
2018,07,21,21,09,20.50
2018,07,21,21,10,20.50
2018,07,21,21,11,20.40
2018,07,21,21,12,20.40
2018,07,21,21,13,20.40
2018,07,21,21,14,20.40
2018,07,21,21,15,20.30
2018,07,21,21,16,20.30
2018,07,21,21,17,20.30
2018,07,21,21,18,20.30
2018,07,21,21,19,20.30
2018,07,21,21,20,20.20
2018,07,21,21,21,20.20
2018,07,21,21,22,20.20
2018,07,21,21,23,20.20
2018,07,21,21,24,20.10
2018,07,21,21,25,20.10
2018,07,21,21,26,20.10
2018,07,21,21,27,20.10
2018,07,21,21,28,20.10
2018,07,21,21,29,20.10
2018,07,21,21,30,20.00
2018,07,21,21,31,20.00
2018,07,21,21,32,20.00
2018,07,21,21,33,20.00
2018,07,21,21,34,20.00
2018,07,21,21,35,20.00
2018,07,21,21,36,19.90
2018,07,21,21,37,19.90
2018,07,21,21,38,19.90
2018,07,21,21,39,19.90
2018,07,21,21,40,19.90
2018,07,21,21,41,19.90
2018,07,21,21,42,19.80
2018,07,21,21,43,19.80
2018,07,21,21,44,19.80
2018,07,21,21,45,19.80
2018,07,21,21,46,19.80
2018,07,21,21,47,19.80
2018,07,21,21,48,19.80
2018,07,21,21,49,19.70
2018,07,21,21,50,19.70
2018,07,21,21,51,19.70
2018,07,21,21,52,19.70
2018,07,21,21,53,19.70
2018,07,21,21,54,19.70
2018,07,21,21,55,19.70
2018,07,21,21,56,19.60
2018,07,21,21,57,19.60
2018,07,21,21,58,19.60
2018,07,21,21,59,19.60
2018,07,21,22,00,19.60
2018,07,21,22,01,19.60
2018,07,21,22,02,19.60
2018,07,21,22,03,19.60
2018,07,21,22,04,19.50
2018,07,21,22,05,19.50
2018,07,21,22,06,19.50
2018,07,21,22,07,19.50
2018,07,21,22,08,19.50
2018,07,21,22,09,19.50
2018,07,21,22,10,19.40